EHI
0 0 0 0 0 0 0 0 0 0 0 0 0 0 0 0 0 0 0 0 0 0 0 0 0 0 0 0 0 0 0 0 1 1 1 0 3 10 17 20 19 12 6
0 0 0 0 0 0 0 0 0 0 0 0 0 0 0 0 0 0 0 0 0 0 0 0 0 0 0 0 0 0 0 0 1 3 3 2 4 10 18 25 27 21 14
0 0 0 0 0 0 0 0 0 0 0 0 0 0 0 0 0 0 0 0 0 0 0 0 0 0 0 0 0 0 0 0 1 3 6 8 8 11 19 29 36 34 30
0 0 0 0 0 0 0 0 0 0 0 0 0 0 0 0 0 0 0 0 0 0 0 0 0 0 0 0 0 0 0 0 0 2 7 13 16 18 23 31 37 39 39
0 0 0 0 0 0 0 0 0 0 0 0 0 0 0 0 0 0 0 0 0 0 0 0 0 0 0 0 0 0 0 0 0 1 5 12 18 24 30 34 36 36 35
0 0 0 0 0 0 0 0 0 0 0 0 0 0 0 0 0 0 0 0 0 0 0 0 0 0 0 0 0 0 0 0 0 0 2 6 12 21 31 37 39 35 31
0 0 0 0 0 0 0 0 0 0 0 0 0 0 0 0 0 0 0 0 0 0 0 0 0 0 0 0 0 0 0 0 0 1 1 2 6 14 25 36 41 37 31
0 0 0 0 0 0 0 0 0 0 0 0 0 0 0 0 0 0 0 0 0 0 0 0 0 0 0 0 0 0 0 0 1 2 1 2 4 9 17 29 36 34 28
0 0 0 0 0 0 0 0 0 0 0 0 0 0 0 0 0 0 0 0 0 0 0 0 0 0 0 0 0 0 0 0 1 2 1 1 3 6 10 19 27 28 25
0 0 0 0 0 0 0 0 0 0 0 0 0 0 0 0 0 0 0 0 0 0 0 0 0 0 0 0 0 0 0 0 0 1 1 1 2 5 6 11 18 21 20
0 0 0 0 0 0 0 0 0 0 0 0 0 0 0 0 0 0 0 0 0 0 0 0 0 0 0 0 0 0 0 0 0 0 1 1 2 3 5 6 10 13 13
0 0 0 0 0 0 0 0 0 0 0 0 0 0 0 0 0 0 0 0 0 0 0 0 0 0 0 0 0 0 0 0 0 0 0 1 1 2 3 3 4 6 9
0 0 0 0 0 0 0 0 0 0 0 0 0 0 0 0 0 0 0 0 0 0 0 0 0 0 0 0 0 0 0 0 0 0 0 0 0 0 0 1 1 2 4
0 0 0 0 0 0 0 0 0 0 0 0 0 0 0 0 0 0 0 0 0 0 0 0 0 0 0 0 0 0 0 0 0 0 0 0 0 0 0 0 0 0 1
0 0 0 0 0 0 0 0 0 0 0 0 0 0 0 0 0 0 0 0 0 0 0 0 0 0 0 0 0 0 0 0 0 0 0 0 0 0 0 0 0 0 0
0 0 0 0 0 0 0 0 0 0 0 0 0 0 0 0 0 0 0 0 0 0 0 0 0 0 0 0 0 0 0 0 0 0 0 0 0 0 0 0 0 0 0
0 0 0 0 0 0 0 0 0 0 0 0 0 0 0 0 0 0 0 0 0 0 0 0 0 0 0 0 0 0 0 0 0 0 0 0 0 0 0 0 0 0 0
0 0 0 0 0 0 0 0 0 0 0 0 0 0 0 0 0 0 0 0 0 0 0 0 0 0 0 0 0 0 0 0 0 0 0 0 0 0 0 0 0 0 0
0 0 0 0 0 0 0 0 0 0 0 0 0 0 0 0 0 0 0 0 0 0 0 0 0 0 0 0 0 0 0 0 0 0 0 0 0 0 0 0 0 0 0
0 0 0 0 0 0 0 0 0 0 0 0 0 0 0 0 0 0 0 0 0 0 0 0 0 0 0 0 0 0 0 0 0 0 0 0 0 0 0 0 0 0 0
0 0 0 0 0 0 0 0 0 0 0 0 0 0 0 0 0 0 0 0 0 0 0 0 0 0 0 0 0 0 0 0 0 0 0 0 0 0 0 0 0 0 0
0 0 0 0 0 0 0 0 0 0 0 0 0 0 0 0 0 0 0 0 0 0 0 0 0 0 0 0 0 0 0 0 0 0 0 0 0 0 0 0 0 0 0
0 0 0 0 0 0 0 0 0 0 0 0 0 0 0 0 0 0 0 0 0 0 0 0 0 0 0 0 0 0 0 0 0 0 0 0 0 0 0 0 0 0 0
0 0 0 0 0 0 0 0 0 0 0 0 0 0 0 0 0 0 0 0 0 0 0 0 0 0 0 0 0 0 0 0 0 0 0 0 0 0 0 0 0 0 0
0 0 0 0 0 0 0 0 0 0 0 0 0 0 0 0 0 0 0 0 0 0 0 0 0 0 0 0 0 0 0 0 0 0 0 0 0 0 0 0 0 0 0
0 0 0 0 0 0 0 0 0 0 0 0 0 0 0 0 0 0 0 0 0 0 0 0 0 0 0 0 0 0 0 0 0 0 0 0 0 0 0 0 0 0 0
Wind_Speed
7 8 7 7 8 8 9 10 10 13 13 13 12 13 14 14 13 12 10 22 26 26 25 25 24 23 22 22 21 24 26 27 26 25 25 25 24 24 23 23 23 23 23
7 8 8 7 7 8 9 9 11 11 11 11 13 14 14 14 12 12 11 15 23 24 24 24 23 23 22 23 22 23 26 28 28 27 26 25 25 25 24 24 23 23 24
7 7 7 7 7 8 9 9 10 9 10 11 13 14 13 12 13 14 14 11 12 18 22 22 22 22 22 22 22 22 25 28 29 28 27 26 25 26 25 25 23 23 23
9 7 7 6 7 8 8 9 8 10 10 11 11 12 12 12 14 14 12 11 10 10 14 20 21 21 21 21 22 22 23 27 29 29 29 28 26 26 27 26 24 24 23
9 8 7 6 8 7 7 9 9 9 11 12 12 12 11 12 13 13 12 12 10 9 7 14 19 19 19 19 20 21 21 24 29 30 30 29 28 28 27 27 26 25 24
10 9 7 7 8 7 6 8 10 10 10 11 13 13 12 14 12 9 10 8 8 8 8 10 9 12 17 17 17 18 20 21 26 30 30 31 30 29 29 28 27 26 25
10 9 8 8 8 8 8 9 10 11 9 9 11 13 11 11 10 5 5 6 6 7 9 10 8 8 8 16 16 16 17 19 22 28 29 30 30 30 29 28 27 27 26
11 11 10 9 9 8 9 9 10 9 9 8 9 11 8 6 4 8 6 5 5 8 11 12 11 10 9 7 11 16 14 15 18 23 28 29 30 30 29 28 28 27 27
11 11 11 10 9 8 8 9 9 10 10 9 6 7 7 6 11 6 5 5 7 8 9 10 12 12 12 8 9 11 14 12 14 17 23 29 30 30 29 27 27 27 27
11 11 11 11 10 9 9 10 9 8 9 9 8 7 9 10 9 8 4 4 7 9 9 11 12 12 11 8 10 14 14 12 11 13 16 24 29 30 31 28 26 25 25
9 11 12 10 10 10 10 10 11 9 7 8 8 9 10 9 10 9 11 8 7 6 7 10 10 9 9 8 7 11 15 12 9 9 10 14 23 29 31 30 27 25 23
8 9 13 10 10 10 11 11 10 10 9 9 9 8 9 8 8 8 10 12 11 8 9 9 9 8 7 7 9 16 15 12 9 7 7 8 13 22 29 30 30 28 25
10 11 12 11 11 11 12 12 10 10 9 10 9 8 8 9 9 9 10 11 12 9 7 7 7 8 7 6 8 17 14 13 11 8 6 6 8 12 21 27 30 30 28
11 13 13 14 15 14 14 12 10 10 9 9 11 10 9 9 9 9 9 10 11 8 6 7 9 7 5 7 10 15 10 14 11 9 7 6 7 9 14 21 26 29 28
12 14 16 16 16 15 14 12 9 10 10 10 9 10 9 9 8 8 9 9 9 10 9 6 5 6 9 8 12 8 8 13 12 10 7 6 6 8 12 15 21 24 24
14 15 16 17 17 16 14 11 10 9 10 9 8 9 9 7 7 7 8 8 8 9 9 5 6 9 11 10 14 9 8 15 11 9 8 6 6 8 11 14 18 23 25
14 15 16 17 17 16 13 11 10 10 10 9 8 8 8 8 7 6 6 6 7 7 10 9 7 8 10 10 9 8 7 6 5 8 9 6 5 7 11 13 17 22 26
13 15 16 17 17 16 13 10 10 10 10 10 10 9 8 8 9 7 6 6 6 7 7 10 8 7 8 8 8 7 6 5 4 7 9 7 4 5 9 12 15 19 23
13 14 15 16 17 15 12 10 10 10 10 10 11 11 10 10 10 9 8 7 6 7 6 7 8 6 6 6 6 6 5 4 5 4 6 6 4 5 8 11 14 17 20
12 14 15 15 15 13 9 9 10 10 11 11 12 12 11 11 11 11 9 9 8 7 7 6 7 6 5 6 4 3 3 2 3 3 4 4 4 6 9 10 13 15 18
12 13 14 15 15 13 8 7 9 11 11 11 12 12 13 18 21 16 12 11 10 8 7 6 7 6 6 6 5 5 4 3 3 1 2 2 2 3 5 7 9 13 15
11 12 13 14 15 13 20 22 14 9 10 10 11 12 13 14 19 21 23 21 18 12 9 6 6 8 8 8 7 6 5 3 2 2 2 2 1 3 4 4 8 12 13
10 11 11 12 14 17 24 21 22 10 9 9 10 11 12 15 17 7 15 19 16 20 18 9 7 7 8 9 9 8 6 4 3 3 4 2 1 3 3 5 11 12 13
8 8 9 11 12 17 25 20 20 9 7 8 9 10 11 12 16 13 11 11 9 9 13 9 7 7 8 9 8 8 8 7 5 3 1 1 1 1 3 4 10 12 12
7 7 8 10 11 15 23 21 16 6 7 8 9 12 14 10 23 24 14 13 12 9 15 19 17 15 16 16 11 6 6 4 2 1 1 0 1 1 2 2 5 11 13
7 9 10 9 10 11 20 22 14 5 7 8 8 10 18 20 24 24 13 12 13 11 12 12 12 13 10 10 14 7 5 4 3 2 1 1 1 0 2 2 2 5 7
Wind_Direction
335 333 328 327 328 330 328 325 324 321 321 318 315 313 311 308 302 299 301 303 303 304 302 299 295 291 283 274 260 243 232 222 212 208 206 204 199 196 195 194 193 191 190
330 330 325 322 326 328 325 322 317 316 317 315 312 312 307 301 297 297 296 299 300 300 300 298 294 289 284 277 267 251 236 227 217 210 207 205 202 198 196 196 195 194 193
326 325 321 319 324 323 321 322 314 318 316 314 311 307 303 299 297 296 296 292 292 297 299 299 297 292 284 277 270 259 242 230 221 213 208 206 203 200 198 197 196 195 195
324 323 318 314 319 320 321 321 321 325 317 314 310 306 302 299 297 293 291 288 288 289 297 303 302 297 288 280 273 264 250 234 224 216 209 205 203 202 200 198 197 196 196
323 320 312 309 319 317 318 320 326 320 317 315 310 304 302 298 291 289 289 288 285 289 297 311 313 310 298 286 278 267 256 240 228 220 212 206 203 202 201 199 197 197 196
321 319 309 313 317 315 315 316 317 317 312 312 310 305 298 288 281 279 282 289 295 305 322 320 317 315 313 303 289 276 261 247 233 225 218 210 204 202 201 200 198 197 197
318 314 314 315 314 312 314 314 317 315 315 316 314 313 294 277 271 284 291 295 304 326 329 327 323 322 316 314 306 295 276 257 241 229 221 214 207 203 201 200 199 198 198
320 321 318 315 312 310 311 312 315 311 317 326 316 314 310 304 342 323 301 307 329 338 331 327 319 321 317 309 306 307 300 274 252 236 224 217 210 205 203 201 200 199 198
317 315 313 313 309 306 307 307 304 312 314 311 303 302 306 318 325 283 287 316 337 327 321 316 316 317 311 310 309 310 310 296 264 246 231 218 212 209 205 203 202 201 199
316 317 316 312 307 306 302 301 312 303 301 305 304 282 287 296 295 305 304 316 318 318 314 316 312 306 306 305 306 313 316 308 280 253 245 225 213 210 207 204 203 202 200
314 316 316 310 307 305 300 296 297 293 291 290 293 292 291 287 275 285 301 313 313 302 303 305 298 299 304 304 303 317 326 319 298 270 256 242 222 212 207 204 202 202 202
314 309 314 307 304 302 298 296 292 289 287 283 282 281 285 288 293 294 296 307 309 309 304 296 294 297 304 307 316 331 332 331 321 299 280 263 241 221 209 204 199 200 203
322 316 312 308 305 300 298 295 294 291 284 280 278 279 279 278 282 285 289 297 301 304 295 292 295 297 304 327 325 334 333 338 340 326 310 288 257 232 216 205 197 197 200
314 310 313 311 307 303 301 297 293 288 284 281 281 279 277 275 274 276 282 292 298 298 291 286 295 291 325 326 320 330 329 334 337 335 318 299 266 234 217 207 197 195 194
315 318 315 313 311 309 306 300 291 288 286 281 279 279 276 274 272 272 272 274 282 294 300 291 294 318 323 312 313 318 322 324 331 333 320 302 272 232 212 200 193 189 188
318 319 321 321 320 318 315 307 299 295 293 290 285 284 286 284 283 280 278 276 269 274 282 283 287 295 301 303 307 312 310 320 323 328 329 302 281 236 207 191 183 185 187
323 326 327 327 327 324 322 318 314 311 312 311 310 309 319 317 312 302 296 292 286 278 278 285 283 289 290 293 298 297 297 301 302 324 327 303 285 242 208 189 182 183 184
327 330 332 334 335 336 337 337 336 339 340 341 342 340 337 337 332 320 317 310 304 299 293 292 294 292 289 290 290 290 295 297 293 313 324 302 274 240 209 191 182 180 180
331 335 338 340 342 346 353 2 4 4 4 1 357 353 347 347 348 342 340 337 324 320 312 302 299 296 292 297 299 291 289 283 291 307 323 296 252 226 206 191 182 178 177
335 338 339 339 342 342 354 13 14 14 10 7 2 356 350 354 355 349 352 353 340 333 329 322 314 311 310 312 309 311 310 297 296 313 319 290 234 209 201 188 182 179 177
340 337 339 341 343 340 353 40 27 17 10 4 360 355 350 358 1 4 360 2 353 346 346 342 337 334 338 339 341 332 313 303 287 295 306 280 197 182 185 183 179 176 176
336 337 339 340 343 342 359 28 35 16 6 2 356 351 346 350 357 7 3 5 3 357 357 356 345 341 337 335 332 330 321 317 318 352 350 312 198 179 169 165 172 173 176
331 334 334 338 340 337 357 24 26 19 1 354 351 349 349 348 354 3 358 359 359 360 360 357 338 335 328 330 328 326 326 321 310 338 347 321 231 188 162 165 169 173 175
326 326 326 333 335 337 351 18 26 15 357 349 344 344 342 340 343 14 359 349 349 352 352 350 340 332 332 326 321 314 305 301 286 266 257 304 299 179 140 154 170 172 172
318 321 325 329 333 333 342 7 31 3 3 347 346 352 349 346 354 11 6 351 351 352 353 354 356 355 355 349 351 341 322 303 286 253 176 232 320 16 103 126 158 167 165
319 326 325 326 324 322 334 352 22 17 7 355 348 348 351 6 5 9 10 355 356 355 346 343 346 347 345 345 0 357 327 309 302 292 41 72 302 58 107 76 115 148 151